When you browse on this site, cookies collect data to enhance your experience and personalize the content and advertising you see.
Visit our Privacy Policy to learn more. By continuing to use the site, you agree to this use of cookies and data.
  • în România
  • Lista ţărilor
  • Pe 7 zile
  • Temperatura apei
  • Hartă satelitară
  • Meteo pe hartă
  • Widget-uri
  • user-avatar
    Intrare

    Meteo pe oră la Ras al-Chajma

    Astăzi, 26 Mai, Duminică

    Timp Temperatura Precipitaţii Vânt Presiune Umiditate
    00:00 +36°C° 0 mm 1 m/s 752 mmHg 36%
    01:00 +33°C° 0 mm 0 m/s 752 mmHg 36%
    02:00 +33°C° 0 mm 0 m/s 752 mmHg 36%
    03:00 +33°C° 0 mm 0 m/s 751 mmHg 35%
    04:00 +32°C° 0 mm 0 m/s 751 mmHg 35%
    05:00 +33°C° 0 mm 0 m/s 751 mmHg 32%
    06:00 +36°C° 0 mm 1 m/s 752 mmHg 30%
    07:00 +37°C° 0 mm 1 m/s 752 mmHg 27%
    08:00 +39°C° 0 mm 1 m/s 752 mmHg 24%
    09:00 +40°C° 0 mm 1 m/s 752 mmHg 21%
    10:00 +42°C° 0 mm 1 m/s 752 mmHg 19%
    11:00 +42°C° 0 mm 1 m/s 752 mmHg 18%
    12:00 +43°C° 0 mm 2 m/s 752 mmHg 17%
    13:00 +45°C° 0 mm 3 m/s 752 mmHg 16%
    14:00 +45°C° 0 mm 3 m/s 752 mmHg 16%
    15:00 +44°C° 0 mm 3 m/s 751 mmHg 17%
    16:00 +44°C° 0 mm 3 m/s 751 mmHg 17%
    17:00 +44°C° 0 mm 3 m/s 751 mmHg 18%
    18:00 +43°C° 0 mm 3 m/s 751 mmHg 19%
    19:00 +42°C° 0 mm 3 m/s 750 mmHg 20%
    20:00 +40°C° 0 mm 2 m/s 751 mmHg 22%
    21:00 +40°C° 0 mm 2 m/s 751 mmHg 24%
    22:00 +39°C° 0 mm 1 m/s 751 mmHg 25%
    23:00 +39°C° 0 mm 1 m/s 751 mmHg 25%

    Mâine, 27 Mai, Luni

    Timp Temperatura Precipitaţii Vânt Presiune Umiditate
    00:00 +37°C° 0 mm 1 m/s 751 mmHg 25%
    01:00 +37°C° 0 mm 1 m/s 751 mmHg 25%
    02:00 +36°C° 0 mm 1 m/s 751 mmHg 26%
    03:00 +36°C° 0 mm 1 m/s 750 mmHg 26%
    04:00 +35°C° 0 mm 1 m/s 750 mmHg 26%
    05:00 +36°C° 0 mm 1 m/s 751 mmHg 24%
    06:00 +37°C° 0 mm 1 m/s 751 mmHg 22%
    07:00 +39°C° 0 mm 1 m/s 751 mmHg 20%
    08:00 +40°C° 0 mm 1 m/s 752 mmHg 19%
    09:00 +41°C° 0 mm 2 m/s 752 mmHg 18%
    10:00 +42°C° 0 mm 2 m/s 752 mmHg 16%
    11:00 +43°C° 0 mm 2 m/s 752 mmHg 16%
    12:00 +44°C° 0 mm 3 m/s 752 mmHg 16%
    13:00 +45°C° 0 mm 3 m/s 751 mmHg 16%
    14:00 +45°C° 0 mm 3 m/s 751 mmHg 17%
    15:00 +45°C° 0 mm 3 m/s 751 mmHg 17%
    16:00 +45°C° 0 mm 3 m/s 750 mmHg 18%
    17:00 +44°C° 0 mm 3 m/s 750 mmHg 19%
    18:00 +42°C° 0 mm 2 m/s 750 mmHg 20%
    19:00 +42°C° 0 mm 2 m/s 750 mmHg 21%
    20:00 +41°C° 0 mm 2 m/s 751 mmHg 21%
    21:00 +41°C° 0 mm 1 m/s 751 mmHg 21%
    22:00 +40°C° 0 mm 1 m/s 751 mmHg 21%
    23:00 +40°C° 0 mm 1 m/s 751 mmHg 23%

    Poimâine, 28 Mai, Marţi

    Timp Temperatura Precipitaţii Vânt Presiune Umiditate
    00:00 +39°C° 0 mm 1 m/s 751 mmHg 25%
    01:00 +37°C° 0 mm 1 m/s 750 mmHg 26%
    02:00 +37°C° 0 mm 1 m/s 750 mmHg 26%
    03:00 +37°C° 0 mm 1 m/s 750 mmHg 26%
    04:00 +36°C° 0 mm 1 m/s 750 mmHg 26%
    05:00 +37°C° 0 mm 1 m/s 750 mmHg 24%
    06:00 +39°C° 0 mm 1 m/s 750 mmHg 22%
    07:00 +39°C° 0 mm 1 m/s 751 mmHg 20%
    08:00 +40°C° 0.1 mm 2 m/s 751 mmHg 19%
    09:00 +43°C° 0.1 mm 3 m/s 751 mmHg 18%
    10:00 +44°C° 0.1 mm 4 m/s 751 mmHg 17%
    11:00 +44°C° 0 mm 4 m/s 751 mmHg 17%
    12:00 +45°C° 0 mm 3 m/s 751 mmHg 17%
    13:00 +45°C° 0 mm 3 m/s 751 mmHg 17%
    14:00 +45°C° 0 mm 3 m/s 751 mmHg 18%
    15:00 +45°C° 0 mm 4 m/s 750 mmHg 19%
    16:00 +45°C° 0 mm 4 m/s 750 mmHg 20%
    17:00 +44°C° 0 mm 3 m/s 750 mmHg 22%
    18:00 +43°C° 0 mm 3 m/s 750 mmHg 24%
    19:00 +41°C° 0 mm 2 m/s 750 mmHg 26%
    20:00 +40°C° 0 mm 2 m/s 750 mmHg 27%
    21:00 +39°C° 0 mm 1 m/s 751 mmHg 28%
    22:00 +39°C° 0 mm 1 m/s 751 mmHg 29%
    23:00 +37°C° 0 mm 1 m/s 751 mmHg 28%

    29 Mai, Miercuri

    Timp Temperatura Precipitaţii Vânt Presiune Umiditate
    00:00 +37°C° 0 mm 1 m/s 751 mmHg 27%
    01:00 +37°C° 0 mm 1 m/s 750 mmHg 26%
    02:00 +36°C° 0 mm 1 m/s 750 mmHg 26%
    03:00 +36°C° 0 mm 1 m/s 750 mmHg 25%
    04:00 +35°C° 0 mm 1 m/s 750 mmHg 25%
    05:00 +36°C° 0 mm 1 m/s 750 mmHg 23%
    06:00 +37°C° 0 mm 1 m/s 751 mmHg 21%
    07:00 +39°C° 0 mm 1 m/s 751 mmHg 19%
    08:00 +40°C° 0 mm 2 m/s 751 mmHg 18%
    09:00 +42°C° 0 mm 3 m/s 752 mmHg 18%
    10:00 +44°C° 0 mm 4 m/s 752 mmHg 17%
    11:00 +44°C° 0 mm 4 m/s 752 mmHg 17%
    12:00 +45°C° 0 mm 4 m/s 751 mmHg 18%
    13:00 +45°C° 0 mm 4 m/s 751 mmHg 18%
    14:00 +45°C° 0 mm 4 m/s 751 mmHg 20%
    15:00 +45°C° 0 mm 5 m/s 750 mmHg 22%
    16:00 +45°C° 0 mm 5 m/s 750 mmHg 24%
    17:00 +42°C° 0 mm 4 m/s 750 mmHg 26%
    18:00 +40°C° 0 mm 3 m/s 750 mmHg 28%
    19:00 +39°C° 0 mm 2 m/s 750 mmHg 30%
    20:00 +39°C° 0 mm 2 m/s 751 mmHg 29%
    21:00 +37°C° 0 mm 1 m/s 751 mmHg 29%
    22:00 +37°C° 0 mm 1 m/s 751 mmHg 29%
    23:00 +37°C° 0 mm 1 m/s 751 mmHg 28%

    30 Mai, Joi

    Timp Temperatura Precipitaţii Vânt Presiune Umiditate
    00:00 +36°C° 0 mm 1 m/s 751 mmHg 27%
    01:00 +36°C° 0 mm 1 m/s 750 mmHg 26%
    02:00 +35°C° 0 mm 1 m/s 750 mmHg 26%
    03:00 +35°C° 0 mm 1 m/s 750 mmHg 26%
    04:00 +34°C° 0 mm 1 m/s 750 mmHg 25%
    05:00 +35°C° 0 mm 1 m/s 750 mmHg 23%
    06:00 +37°C° 0 mm 2 m/s 751 mmHg 21%
    07:00 +38°C° 0 mm 3 m/s 751 mmHg 19%
    08:00 +39°C° 0 mm 3 m/s 751 mmHg 18%
    09:00 +42°C° 0 mm 3 m/s 751 mmHg 17%
    10:00 +43°C° 0 mm 3 m/s 751 mmHg 15%
    11:00 +44°C° 0 mm 4 m/s 751 mmHg 16%
    12:00 +44°C° 0 mm 4 m/s 751 mmHg 16%
    13:00 +46°C° 0 mm 5 m/s 750 mmHg 16%
    14:00 +45°C° 0 mm 5 m/s 750 mmHg 18%
    15:00 +44°C° 0 mm 4 m/s 750 mmHg 20%
    16:00 +43°C° 0 mm 4 m/s 749 mmHg 22%
    17:00 +42°C° 0 mm 3 m/s 749 mmHg 22%
    18:00 +42°C° 0 mm 3 m/s 749 mmHg 23%
    19:00 +40°C° 0 mm 2 m/s 750 mmHg 23%
    20:00 +39°C° 0 mm 2 m/s 750 mmHg 23%
    21:00 +39°C° 0 mm 1 m/s 750 mmHg 23%
    22:00 +37°C° 0 mm 1 m/s 750 mmHg 23%
    23:00 +37°C° 0 mm 1 m/s 750 mmHg 23%

    31 Mai, Vineri

    Timp Temperatura Precipitaţii Vânt Presiune Umiditate
    00:00 +36°C° 0 mm 1 m/s 750 mmHg 24%
    01:00 +34°C° 0 mm 0 m/s 750 mmHg 24%
    02:00 +35°C° 0 mm 1 m/s 749 mmHg 25%
    03:00 +35°C° 0 mm 1 m/s 749 mmHg 27%
    04:00 +34°C° 0 mm 1 m/s 749 mmHg 28%
    05:00 +35°C° 0 mm 1 m/s 750 mmHg 26%
    06:00 +36°C° 0 mm 1 m/s 750 mmHg 25%
    07:00 +38°C° 0 mm 2 m/s 750 mmHg 23%
    08:00 +39°C° 0 mm 2 m/s 751 mmHg 20%
    09:00 +41°C° 0 mm 2 m/s 751 mmHg 18%
    10:00 +43°C° 0 mm 3 m/s 751 mmHg 15%
    11:00 +43°C° 0 mm 3 m/s 751 mmHg 17%
    12:00 +44°C° 0 mm 3 m/s 750 mmHg 18%
    13:00 +44°C° 0 mm 4 m/s 750 mmHg 19%
    14:00 +44°C° 0 mm 4 m/s 750 mmHg 19%
    15:00 +44°C° 0 mm 3 m/s 749 mmHg 19%
    16:00 +44°C° 0 mm 3 m/s 749 mmHg 19%
    17:00 +42°C° 0 mm 2 m/s 749 mmHg 19%
    18:00 +41°C° 0 mm 2 m/s 749 mmHg 19%
    19:00 +40°C° 0 mm 2 m/s 749 mmHg 19%
    20:00 +40°C° 0 mm 1 m/s 750 mmHg 20%
    21:00 +39°C° 0 mm 1 m/s 750 mmHg 21%
    22:00 +37°C° 0 mm 1 m/s 750 mmHg 21%
    23:00 +37°C° 0 mm 1 m/s 750 mmHg 21%
    Arată mai mult